Location: Newark
(41.0833°N, 9.3833°E)
Time: 01:16:23
(UTC+00:00)

Hubble Space Telescope - Visible Passes

Search period start: 07 April 2020 00:00
Search period end: 17 April 2020 00:00
Orbit: 536 x 540 km, 28.5° (Epoch: 06 April)

Date Brightness Start Highest point End Pass type
(mag) Time Alt. Az. Time Alt. Az. Time Alt. Az.
07 Apr 3.0 19:19:28 10° S 19:20:23 11° S 19:20:23 11° S visible
08 Apr 2.9 19:08:18 10° SSW 19:10:04 12° S 19:10:33 12° SSE visible
09 Apr 2.8 18:57:17 10° SSW 18:59:17 13° S 19:00:38 12° SSE visible
10 Apr 2.9 18:46:22 10° SSW 18:48:30 14° S 18:50:38 10° SE visible
11 Apr 2.9 18:35:31 10° SSW 18:37:43 14° S 18:39:54 10° SSE visible
12 Apr 3.0 18:24:46 10° SW 18:26:56 14° S 18:29:06 10° SSE visible
